Location: ?????
(32.7281°N, 34.9563°E)
Time: 16:59:03
(UTC+00:00)

CZ-4B R/B - Pass Details

Date: 09 March 2021
Orbit: 388 x 454 km, 97.6° (Epoch: 18 April)

Event Time Altitude Azimuth Distance (km) Brightness Sun altitude
Rises 02:57:00 0° 161° (SSE) 2,326 5.2 -13.7°
Reaches altitude 10° 02:59:00 10° 157° (SSE) 1,458 4.2 -13.3°
Maximum altitude 03:02:04 60° 77° (ENE) 464 1.8 -12.6°
Drops below altitude 10° 03:05:05 10° 356° (N) 1,441 4.0 -12.0°
Sets 03:07:04 0° 353° (N) 2,294 4.9 -11.6°
